QPF
0.00 0.00 0.00 0.00 0.00 0.00 0.00 0.00 0.00 0.00 0.00 0.00 0.00 0.00 0.00 0.00 0.00 0.00 0.00 0.00 0.00 0.00 0.00 0.00 0.00 0.00 0.00 0.00 0.00 0.00 0.00 0.00 0.00 0.00 0.00 0.00 0.00 0.00 0.00 0.00 0.00 0.00 0.00 0.00
0.00 0.00 0.00 0.00 0.00 0.00 0.00 0.00 0.00 0.00 0.00 0.00 0.00 0.00 0.00 0.00 0.00 0.00 0.00 0.00 0.00 0.00 0.00 0.00 0.00 0.00 0.00 0.00 0.00 0.00 0.00 0.00 0.00 0.00 0.00 0.00 0.00 0.00 0.00 0.00 0.00 0.00 0.00 0.00
0.00 0.00 0.00 0.00 0.00 0.00 0.00 0.00 0.00 0.00 0.00 0.00 0.00 0.00 0.00 0.00 0.00 0.00 0.00 0.00 0.00 0.00 0.00 0.00 0.00 0.00 0.00 0.00 0.00 0.00 0.00 0.00 0.00 0.00 0.00 0.00 0.00 0.00 0.00 0.00 0.00 0.00 0.00 0.00
0.00 0.00 0.00 0.00 0.00 0.00 0.00 0.00 0.00 0.00 0.00 0.00 0.00 0.00 0.00 0.00 0.00 0.00 0.00 0.00 0.00 0.00 0.00 0.00 0.00 0.00 0.00 0.00 0.00 0.00 0.00 0.00 0.00 0.00 0.00 0.00 0.00 0.00 0.00 0.00 0.00 0.00 0.00 0.00
0.00 0.00 0.00 0.00 0.00 0.00 0.00 0.00 0.00 0.00 0.00 0.00 0.00 0.00 0.00 0.00 0.00 0.00 0.00 0.00 0.00 0.00 0.00 0.00 0.00 0.00 0.00 0.00 0.00 0.00 0.00 0.00 0.00 0.00 0.00 0.00 0.00 0.00 0.00 0.00 0.00 0.00 0.00 0.00
0.00 0.00 0.00 0.00 0.00 0.00 0.00 0.00 0.00 0.00 0.00 0.00 0.00 0.00 0.00 0.00 0.00 0.00 0.00 0.00 0.00 0.00 0.00 0.00 0.00 0.00 0.00 0.00 0.00 0.00 0.00 0.00 0.00 0.00 0.00 0.00 0.00 0.00 0.00 0.00 0.00 0.00 0.00 0.00
0.00 0.00 0.00 0.00 0.00 0.00 0.00 0.00 0.00 0.00 0.00 0.00 0.00 0.00 0.00 0.00 0.00 0.00 0.00 0.00 0.00 0.00 0.00 0.00 0.00 0.00 0.00 0.00 0.00 0.00 0.00 0.00 0.00 0.00 0.00 0.00 0.00 0.00 0.00 0.00 0.00 0.00 0.00 0.00
0.00 0.00 0.00 0.00 0.00 0.00 0.00 0.00 0.00 0.00 0.00 0.00 0.00 0.00 0.00 0.00 0.00 0.00 0.00 0.00 0.00 0.00 0.00 0.00 0.00 0.00 0.00 0.00 0.00 0.00 0.00 0.00 0.00 0.00 0.00 0.00 0.00 0.00 0.00 0.00 0.00 0.00 0.00 0.00
0.00 0.00 0.00 0.00 0.00 0.00 0.00 0.00 0.00 0.00 0.00 0.00 0.00 0.00 0.00 0.00 0.00 0.00 0.00 0.00 0.00 0.00 0.00 0.00 0.00 0.00 0.00 0.00 0.00 0.00 0.00 0.00 0.00 0.00 0.00 0.00 0.00 0.00 0.00 0.00 0.00 0.00 0.00 0.00
0.00 0.00 0.00 0.00 0.00 0.00 0.00 0.00 0.00 0.00 0.00 0.00 0.00 0.00 0.00 0.00 0.00 0.00 0.00 0.00 0.00 0.00 0.00 0.00 0.00 0.00 0.00 0.00 0.00 0.00 0.00 0.00 0.00 0.00 0.00 0.00 0.00 0.00 0.00 0.00 0.00 0.00 0.00 0.00
0.00 0.00 0.00 0.00 0.00 0.00 0.00 0.00 0.00 0.00 0.00 0.00 0.00 0.00 0.00 0.00 0.00 0.00 0.00 0.00 0.00 0.00 0.00 0.00 0.00 0.00 0.00 0.00 0.00 0.00 0.00 0.00 0.00 0.00 0.00 0.00 0.00 0.00 0.00 0.00 0.00 0.00 0.00 0.00
0.00 0.00 0.00 0.00 0.00 0.00 0.00 0.00 0.00 0.00 0.00 0.00 0.00 0.00 0.00 0.00 0.00 0.00 0.00 0.00 0.00 0.00 0.00 0.00 0.00 0.00 0.00 0.00 0.00 0.00 0.00 0.00 0.00 0.00 0.00 0.00 0.00 0.00 0.00 0.00 0.00 0.00 0.00 0.00
0.00 0.00 0.00 0.00 0.00 0.00 0.00 0.00 0.00 0.00 0.00 0.00 0.00 0.00 0.00 0.00 0.00 0.00 0.00 0.00 0.00 0.00 0.00 0.00 0.00 0.00 0.00 0.00 0.00 0.00 0.00 0.00 0.00 0.00 0.00 0.00 0.00 0.00 0.00 0.00 0.00 0.00 0.00 0.00
0.00 0.00 0.00 0.00 0.00 0.00 0.00 0.00 0.00 0.00 0.00 0.00 0.00 0.00 0.00 0.00 0.00 0.00 0.00 0.00 0.00 0.00 0.00 0.00 0.00 0.00 0.00 0.00 0.00 0.00 0.00 0.00 0.00 0.00 0.00 0.00 0.00 0.00 0.00 0.00 0.00 0.00 0.00 0.00
0.00 0.00 0.00 0.00 0.00 0.00 0.00 0.00 0.00 0.00 0.00 0.00 0.00 0.00 0.00 0.00 0.00 0.00 0.00 0.00 0.00 0.00 0.00 0.00 0.00 0.00 0.00 0.00 0.00 0.00 0.00 0.00 0.00 0.00 0.00 0.00 0.00 0.00 0.00 0.00 0.00 0.00 0.00 0.00
0.00 0.00 0.00 0.00 0.00 0.00 0.00 0.00 0.00 0.00 0.00 0.00 0.00 0.00 0.00 0.00 0.00 0.00 0.00 0.00 0.00 0.00 0.00 0.00 0.00 0.00 0.00 0.00 0.00 0.00 0.00 0.00 0.00 0.00 0.00 0.00 0.00 0.00 0.00 0.00 0.00 0.00 0.00 0.00
0.00 0.00 0.00 0.00 0.00 0.00 0.00 0.00 0.00 0.00 0.00 0.00 0.00 0.00 0.00 0.00 0.00 0.00 0.00 0.00 0.00 0.00 0.00 0.00 0.00 0.00 0.00 0.00 0.00 0.00 0.00 0.00 0.00 0.00 0.00 0.00 0.00 0.00 0.00 0.00 0.00 0.00 0.00 0.00
0.00 0.00 0.00 0.00 0.00 0.00 0.00 0.00 0.00 0.00 0.00 0.00 0.00 0.00 0.00 0.00 0.00 0.00 0.00 0.00 0.00 0.00 0.00 0.00 0.00 0.00 0.00 0.00 0.00 0.00 0.00 0.00 0.00 0.00 0.00 0.00 0.00 0.00 0.00 0.00 0.00 0.00 0.00 0.00
0.00 0.00 0.00 0.00 0.00 0.00 0.00 0.00 0.00 0.00 0.00 0.00 0.00 0.00 0.00 0.00 0.00 0.00 0.00 0.00 0.00 0.00 0.00 0.00 0.00 0.00 0.00 0.00 0.00 0.00 0.00 0.00 0.00 0.00 0.00 0.00 0.00 0.00 0.00 0.00 0.00 0.00 0.00 0.00
0.00 0.00 0.00 0.00 0.00 0.00 0.00 0.00 0.00 0.00 0.00 0.00 0.00 0.00 0.00 0.00 0.00 0.00 0.00 0.00 0.00 0.00 0.00 0.00 0.00 0.00 0.00 0.00 0.00 0.00 0.00 0.00 0.00 0.00 0.00 0.00 0.00 0.00 0.00 0.00 0.00 0.00 0.00 0.00
0.00 0.00 0.00 0.00 0.00 0.00 0.00 0.00 0.00 0.00 0.00 0.00 0.00 0.00 0.00 0.00 0.00 0.00 0.00 0.00 0.00 0.00 0.00 0.00 0.00 0.00 0.00 0.00 0.00 0.00 0.00 0.00 0.00 0.00 0.00 0.00 0.00 0.00 0.00 0.00 0.00 0.00 0.00 0.00
0.00 0.00 0.00 0.00 0.00 0.00 0.00 0.00 0.00 0.00 0.00 0.00 0.00 0.00 0.00 0.00 0.00 0.00 0.00 0.00 0.00 0.00 0.00 0.00 0.00 0.00 0.00 0.00 0.00 0.00 0.00 0.00 0.00 0.00 0.00 0.00 0.00 0.00 0.00 0.00 0.00 0.00 0.00 0.00
0.00 0.00 0.00 0.00 0.00 0.00 0.00 0.00 0.00 0.00 0.00 0.00 0.00 0.00 0.00 0.00 0.00 0.00 0.00 0.00 0.00 0.00 0.00 0.00 0.00 0.00 0.00 0.00 0.00 0.00 0.00 0.00 0.00 0.00 0.00 0.00 0.00 0.00 0.00 0.00 0.00 0.00 0.00 0.00
0.00 0.00 0.00 0.00 0.00 0.00 0.00 0.00 0.00 0.00 0.00 0.00 0.00 0.00 0.00 0.00 0.00 0.00 0.00 0.00 0.00 0.00 0.00 0.00 0.00 0.00 0.00 0.00 0.00 0.00 0.00 0.00 0.00 0.00 0.00 0.00 0.00 0.00 0.00 0.00 0.00 0.00 0.00 0.00
0.00 0.00 0.00 0.00 0.00 0.00 0.00 0.00 0.00 0.00 0.00 0.00 0.00 0.00 0.00 0.00 0.00 0.00 0.00 0.00 0.00 0.00 0.00 0.00 0.00 0.00 0.00 0.00 0.00 0.00 0.00 0.00 0.00 0.00 0.00 0.00 0.00 0.00 0.00 0.00 0.00 0.00 0.00 0.00
0.00 0.00 0.00 0.00 0.00 0.00 0.00 0.00 0.00 0.00 0.00 0.00 0.00 0.00 0.00 0.00 0.00 0.00 0.00 0.00 0.00 0.00 0.00 0.00 0.00 0.00 0.00 0.00 0.00 0.00 0.00 0.00 0.00 0.00 0.00 0.00 0.00 0.00 0.00 0.00 0.00 0.00 0.00 0.00
0.00 0.00 0.00 0.00 0.00 0.00 0.00 0.00 0.00 0.00 0.00 0.00 0.00 0.00 0.00 0.00 0.00 0.00 0.00 0.00 0.00 0.00 0.00 0.00 0.00 0.00 0.00 0.00 0.00 0.00 0.00 0.00 0.00 0.00 0.00 0.00 0.00 0.00 0.00 0.00 0.00 0.00 0.00 0.00
MSLP
1025.05 1024.56 1024.40 1023.88 1023.74 1023.80 1023.73 1023.17 1023.01 1020.31 1019.94 1017.72 1017.46 1017.59 1017.22 1016.79 1016.92 1016.93 1016.92 1017.24 1017.33 1017.50 1017.60 1017.38 1017.17 1016.87 1016.28 1015.53 1014.87 1014.19 1013.51 1012.89 1012.43 1011.93 1011.45 1011.00 1010.68 1010.40 1010.11 1009.90 1009.78 1009.61 1009.37 1009.30
1024.40 1023.54 1023.41 1022.85 1021.95 1021.84 1021.67 1021.46 1021.00 1020.10 1018.61 1017.02 1016.30 1016.62 1016.48 1016.44 1016.61 1016.79 1016.75 1016.95 1017.01 1017.31 1017.38 1017.26 1017.14 1016.85 1016.39 1015.95 1015.27 1014.62 1014.15 1013.59 1013.05 1012.45 1011.93 1011.55 1011.25 1011.01 1010.83 1010.63 1010.42 1010.17 1009.96 1009.81
1024.07 1023.37 1022.70 1021.15 1018.98 1019.06 1019.37 1019.14 1019.07 1019.17 1016.31 1016.14 1016.01 1016.16 1016.03 1015.91 1016.10 1016.22 1016.40 1016.61 1016.82 1017.06 1017.24 1017.07 1016.92 1016.80 1016.51 1016.04 1015.54 1015.10 1014.62 1013.99 1013.44 1012.97 1012.49 1012.09 1011.77 1011.52 1011.30 1011.13 1010.94 1010.78 1010.64 1010.47
1024.20 1023.49 1021.75 1018.36 1017.70 1017.57 1017.91 1017.35 1017.20 1016.46 1015.67 1015.70 1015.62 1015.41 1015.36 1015.33 1015.41 1015.49 1015.84 1016.16 1016.44 1016.59 1016.79 1016.84 1016.72 1016.61 1016.40 1016.01 1015.66 1015.36 1015.01 1014.59 1014.04 1013.56 1013.18 1012.86 1012.56 1012.32 1012.08 1011.79 1011.55 1011.38 1011.21 1010.91
1025.05 1024.15 1020.90 1017.36 1016.84 1016.87 1017.05 1015.92 1015.18 1015.62 1015.41 1015.36 1015.37 1015.28 1014.51 1014.25 1014.45 1014.73 1015.12 1015.50 1015.82 1016.09 1016.38 1016.40 1016.44 1016.41 1016.31 1016.11 1015.82 1015.54 1015.31 1014.98 1014.59 1014.20 1013.83 1013.51 1013.27 1013.01 1012.80 1012.58 1012.27 1012.04 1011.84 1011.51
1025.30 1024.51 1021.45 1017.52 1016.46 1016.11 1016.15 1015.53 1014.46 1014.83 1015.07 1015.28 1015.35 1015.62 1014.74 1014.09 1014.18 1014.43 1014.79 1015.14 1015.45 1015.84 1016.13 1016.26 1016.06 1016.11 1016.23 1016.15 1016.01 1015.73 1015.42 1015.22 1015.01 1014.68 1014.39 1014.05 1013.81 1013.57 1013.37 1013.19 1012.97 1012.74 1012.54 1012.35
1024.81 1023.93 1020.32 1017.10 1016.56 1016.21 1016.04 1014.90 1013.90 1014.14 1014.37 1014.88 1015.42 1014.93 1014.36 1014.30 1014.26 1014.32 1014.46 1014.77 1015.09 1015.44 1015.67 1015.64 1015.76 1016.00 1016.16 1016.01 1015.87 1015.48 1015.37 1015.23 1015.05 1014.85 1014.67 1014.40 1014.16 1013.94 1013.82 1013.71 1013.58 1013.42 1013.32 1013.17
1023.91 1023.09 1019.48 1016.03 1016.62 1016.15 1014.10 1013.77 1013.56 1013.69 1013.85 1014.31 1014.26 1014.25 1014.25 1014.16 1014.19 1014.28 1014.40 1014.49 1014.72 1015.06 1015.12 1015.11 1015.38 1015.58 1015.71 1015.60 1015.15 1015.22 1015.23 1015.05 1014.83 1014.66 1014.58 1014.44 1014.38 1014.23 1014.12 1014.04 1014.00 1013.98 1013.92 1013.78
1020.79 1018.04 1015.68 1015.10 1014.13 1013.54 1013.54 1013.54 1013.49 1013.51 1013.50 1013.71 1013.97 1013.99 1013.81 1013.77 1013.77 1013.78 1013.86 1014.01 1014.22 1014.48 1014.61 1014.57 1014.65 1014.86 1015.08 1014.57 1014.89 1015.02 1015.06 1015.01 1014.99 1014.90 1014.80 1014.69 1014.62 1014.53 1014.47 1014.35 1014.26 1014.22 1014.18 1014.17
1019.12 1014.70 1014.86 1014.76 1013.78 1013.52 1013.29 1013.20 1012.97 1013.05 1013.29 1013.49 1013.70 1013.58 1013.64 1013.71 1013.73 1013.77 1013.60 1013.66 1013.74 1014.11 1014.19 1014.05 1014.03 1014.14 1014.15 1014.40 1014.49 1014.66 1014.73 1014.72 1014.80 1014.86 1014.82 1014.71 1014.54 1014.42 1014.31 1014.20 1014.10 1013.96 1013.95 1013.99
1016.68 1014.20 1014.12 1013.39 1012.97 1012.84 1012.65 1012.64 1012.78 1012.68 1012.88 1012.99 1013.22 1013.26 1013.33 1013.26 1013.21 1013.08 1013.02 1012.98 1013.13 1013.23 1013.21 1012.99 1013.13 1013.21 1013.34 1013.54 1013.79 1014.04 1014.17 1014.28 1014.41 1014.44 1014.39 1014.35 1014.29 1014.21 1014.15 1013.97 1013.77 1013.56 1013.46 1013.49
1013.61 1012.32 1012.26 1011.79 1011.60 1011.92 1012.31 1012.32 1012.22 1012.49 1012.71 1012.62 1012.72 1012.73 1012.74 1012.67 1012.56 1012.54 1012.38 1012.22 1012.30 1012.30 1012.36 1012.14 1012.28 1012.27 1012.41 1012.54 1012.89 1013.33 1013.71 1013.73 1013.79 1014.01 1014.11 1014.07 1014.01 1013.86 1013.69 1013.54 1013.42 1013.32 1013.24 1013.26
1011.81 1011.73 1011.78 1011.57 1011.69 1011.78 1011.83 1011.83 1012.06 1012.45 1012.50 1012.53 1012.35 1012.45 1012.38 1012.22 1011.90 1011.75 1011.77 1011.79 1011.78 1011.62 1011.49 1011.41 1011.48 1011.55 1011.34 1011.50 1012.13 1012.45 1012.59 1012.61 1012.90 1013.15 1013.25 1013.41 1013.60 1013.81 1013.78 1013.40 1013.25 1013.15 1012.92 1012.88
1011.37 1011.92 1011.64 1011.52 1011.17 1011.15 1011.49 1011.58 1011.78 1012.01 1012.17 1012.21 1012.03 1011.82 1011.68 1011.63 1011.49 1011.45 1011.28 1011.06 1010.98 1010.97 1010.96 1010.90 1010.96 1010.90 1010.59 1011.01 1011.38 1011.51 1011.66 1011.83 1012.03 1012.20 1012.41 1012.74 1012.99 1013.06 1013.14 1013.26 1013.12 1012.91 1012.70 1012.59
1010.96 1011.15 1010.56 1010.85 1011.02 1011.17 1011.32 1011.63 1011.74 1011.86 1011.98 1011.94 1011.64 1011.46 1011.22 1011.08 1010.87 1010.64 1010.42 1010.20 1010.20 1010.33 1010.27 1010.22 1010.35 1010.19 1010.04 1010.31 1010.62 1010.76 1011.04 1011.28 1011.42 1011.54 1011.70 1011.95 1012.14 1012.28 1012.32 1012.37 1012.38 1012.42 1012.52 1012.34
1010.76 1010.70 1010.78 1011.06 1010.86 1010.95 1011.22 1011.41 1011.74 1011.62 1011.58 1011.60 1011.58 1011.34 1011.17 1010.97 1010.78 1010.50 1010.22 1010.03 1009.90 1009.79 1009.73 1009.81 1009.82 1009.47 1009.53 1009.77 1010.04 1010.24 1010.40 1010.50 1010.74 1010.79 1010.88 1011.06 1011.28 1011.46 1011.61 1011.70 1011.76 1011.86 1011.99 1011.91
1010.79 1010.36 1010.33 1010.29 1010.29 1010.49 1010.55 1010.48 1010.74 1011.03 1011.51 1011.74 1011.54 1011.28 1011.00 1010.84 1010.74 1010.67 1010.44 1009.98 1009.70 1009.51 1009.24 1009.12 1008.89 1008.85 1008.79 1008.85 1009.04 1009.10 1009.12 1009.18 1009.47 1009.77 1009.95 1010.05 1010.34 1010.56 1010.62 1010.72 1010.78 1010.90 1010.85 1010.99
1009.13 1009.07 1009.20 1009.11 1009.37 1009.68 1010.07 1010.41 1010.62 1010.71 1010.69 1010.64 1011.16 1011.44 1011.20 1010.97 1010.68 1010.38 1010.25 1010.06 1009.82 1009.55 1009.09 1008.67 1008.43 1008.18 1008.26 1008.27 1008.29 1008.37 1008.46 1008.59 1008.78 1008.87 1008.96 1009.19 1009.22 1009.34 1009.61 1009.69 1009.70 1009.87 1009.96 1010.03
1008.50 1008.21 1008.69 1008.78 1008.96 1009.38 1009.67 1010.01 1010.34 1010.42 1010.55 1010.56 1010.45 1010.98 1011.25 1011.03 1011.11 1010.90 1010.46 1010.12 1009.81 1009.73 1009.18 1008.74 1008.40 1008.09 1008.09 1008.13 1008.18 1008.19 1008.18 1008.17 1008.21 1008.28 1008.34 1008.38 1008.42 1008.50 1008.71 1008.78 1008.82 1008.89 1008.99 1009.18
1008.21 1008.20 1008.20 1008.75 1009.07 1009.47 1009.75 1009.89 1009.76 1010.44 1010.58 1010.62 1010.46 1010.48 1010.47 1010.38 1010.55 1010.73 1010.83 1010.45 1009.86 1009.46 1009.36 1009.18 1008.75 1008.41 1008.01 1007.74 1007.58 1007.65 1007.76 1007.82 1007.77 1007.70 1007.87 1007.93 1007.92 1007.96 1007.91 1007.85 1008.00 1008.05 1008.20 1008.38
1008.53 1008.45 1008.71 1008.95 1009.30 1009.44 1009.60 1009.85 1010.05 1010.09 1010.34 1010.62 1010.76 1010.58 1010.43 1010.26 1010.07 1010.10 1010.13 1010.60 1009.57 1009.25 1009.26 1008.98 1008.62 1008.19 1007.81 1007.52 1007.30 1007.21 1007.08 1007.08 1007.24 1007.18 1007.14 1007.24 1007.20 1007.14 1007.22 1007.37 1007.44 1007.48 1007.43 1007.66
1009.12 1009.18 1009.19 1009.28 1009.56 1009.62 1009.58 1009.62 1009.83 1010.01 1010.11 1009.94 1009.90 1010.37 1010.27 1010.10 1009.95 1009.97 1009.71 1009.35 1009.34 1009.16 1009.05 1008.89 1008.47 1008.03 1007.63 1007.15 1006.94 1006.81 1006.59 1006.33 1006.27 1006.39 1006.45 1006.38 1006.44 1006.41 1006.46 1006.65 1006.77 1006.91 1006.93 1007.15
1009.19 1009.35 1009.42 1009.44 1009.53 1009.36 1009.41 1009.57 1009.65 1009.81 1009.60 1009.59 1009.58 1009.74 1009.55 1009.55 1009.72 1009.78 1009.23 1008.45 1008.66 1008.71 1008.41 1008.22 1007.87 1007.56 1007.17 1006.79 1006.50 1006.46 1006.17 1005.82 1005.55 1005.61 1005.69 1005.71 1005.71 1005.72 1005.89 1006.07 1006.28 1006.54 1006.51 1006.73
1009.42 1009.58 1009.50 1009.22 1009.33 1009.36 1009.25 1008.72 1009.04 1009.00 1008.96 1008.81 1008.62 1008.39 1008.74 1008.69 1008.70 1008.50 1008.35 1007.95 1007.90 1007.90 1007.86 1007.70 1007.29 1006.73 1006.54 1006.43 1006.28 1006.01 1005.69 1005.44 1004.95 1004.75 1005.10 1005.07 1005.12 1005.28 1005.59 1005.98 1006.21 1006.40 1006.34 1006.49
1008.58 1008.63 1008.98 1009.05 1009.09 1008.76 1008.44 1008.16 1008.26 1008.14 1008.10 1007.92 1007.48 1007.50 1007.58 1007.79 1007.72 1007.23 1007.65 1007.48 1007.61 1007.53 1007.35 1007.00 1006.83 1006.42 1006.03 1005.99 1005.76 1005.50 1005.23 1004.96 1004.64 1004.28 1004.52 1004.63 1004.54 1004.78 1004.91 1005.30 1005.81 1006.43 1006.43 1006.59
1008.01 1008.02 1007.72 1007.47 1007.55 1007.58 1007.40 1007.27 1007.30 1007.06 1007.17 1006.87 1006.55 1006.48 1006.54 1006.50 1006.54 1006.69 1006.97 1007.05 1006.96 1007.05 1006.80 1006.54 1006.35 1006.20 1005.75 1005.37 1005.11 1005.09 1004.82 1004.66 1004.31 1004.16 1004.29 1004.80 1004.78 1004.70 1004.86 1005.04 1005.51 1005.89 1006.01 1006.48
1007.13 1006.89 1006.82 1006.80 1006.73 1006.63 1006.46 1006.35 1006.38 1006.16 1005.95 1006.14 1006.00 1005.70 1005.75 1005.66 1005.75 1006.06 1006.20 1006.32 1006.32 1006.38 1006.24 1005.96 1005.76 1005.73 1005.36 1005.00 1004.69 1004.61 1004.45 1004.28 1004.19 1004.20 1004.28 1004.83 1004.83 1004.66 1004.84 1004.96 1005.45 1005.75 1005.93 1006.32
Thickness
5491 5497 5497 5503 5507 5503 5500 5518 5517 5537 5526 5560 5564 5557 5558 5559 5562 5560 5558 5556 5553 5548 5544 5542 5539 5536 5536 5539 5540 5540 5542 5543 5543 5546 5548 5549 5549 5549 5548 5545 5542 5539 5538 5535
5498 5507 5503 5506 5517 5521 5525 5528 5529 5539 5549 5570 5575 5565 5567 5564 5562 5561 5561 5560 5557 5552 5548 5545 5542 5541 5540 5540 5542 5544 5544 5544 5545 5548 5549 5549 5549 5548 5546 5544 5541 5540 5538 5536
5502 5508 5508 5520 5544 5543 5542 5540 5545 5535 5571 5572 5571 5567 5568 5572 5567 5566 5565 5563 5560 5555 5549 5547 5546 5544 5542 5542 5544 5545 5545 5546 5548 5549 5550 5549 5548 5547 5545 5543 5541 5538 5536 5533
5511 5498 5522 5564 5562 5563 5553 5559 5559 5566 5574 5568 5569 5572 5572 5571 5573 5574 5569 5566 5563 5557 5552 5550 5548 5547 5545 5545 5544 5545 5544 5544 5546 5547 5547 5545 5544 5541 5539 5538 5536 5534 5532 5531
5492 5485 5524 5570 5570 5558 5554 5572 5569 5570 5575 5572 5568 5573 5577 5581 5577 5578 5575 5570 5566 5561 5557 5554 5552 5549 5547 5545 5544 5544 5543 5542 5542 5541 5543 5541 5539 5537 5535 5534 5533 5531 5528 5527
5499 5493 5522 5572 5575 5570 5567 5553 5574 5562 5566 5568 5569 5568 5573 5588 5586 5581 5575 5572 5568 5563 5559 5555 5555 5551 5548 5545 5542 5542 5541 5540 5538 5537 5536 5536 5534 5532 5529 5527 5525 5524 5522 5519
5511 5513 5523 5555 5566 5570 5567 5574 5580 5577 5580 5565 5566 5572 5581 5583 5583 5582 5578 5574 5571 5565 5562 5560 5556 5551 5548 5545 5543 5544 5541 5539 5537 5535 5533 5531 5529 5527 5524 5521 5518 5514 5512 5509
5521 5514 5509 5565 5559 5565 5581 5585 5591 5589 5589 5578 5576 5579 5579 5579 5579 5579 5577 5575 5571 5566 5563 5561 5556 5552 5549 5546 5547 5543 5539 5538 5535 5532 5529 5527 5524 5521 5518 5515 5510 5505 5501 5499
5531 5551 5574 5573 5586 5591 5585 5589 5590 5590 5588 5586 5583 5585 5585 5584 5582 5580 5578 5574 5572 5566 5563 5561 5558 5553 5549 5550 5544 5540 5536 5532 5528 5525 5522 5519 5516 5513 5510 5506 5502 5498 5494 5490
5549 5587 5579 5577 5584 5583 5586 5587 5590 5589 5587 5586 5583 5583 5582 5579 5578 5576 5575 5573 5570 5564 5561 5560 5558 5553 5550 5546 5541 5536 5531 5527 5523 5519 5516 5513 5510 5507 5503 5500 5497 5494 5490 5485
5546 5578 5580 5588 5582 5586 5587 5584 5586 5588 5587 5586 5581 5579 5578 5577 5577 5576 5575 5573 5569 5564 5563 5563 5559 5553 5549 5545 5539 5532 5527 5524 5519 5515 5512 5508 5505 5501 5496 5494 5491 5488 5484 5480
5591 5587 5597 5600 5599 5591 5583 5584 5584 5582 5582 5581 5578 5576 5576 5573 5572 5571 5571 5570 5566 5563 5560 5561 5555 5552 5548 5544 5538 5531 5525 5520 5516 5510 5505 5502 5498 5495 5493 5490 5486 5483 5478 5472
5596 5586 5584 5589 5588 5584 5584 5582 5579 5574 5571 5573 5573 5571 5570 5570 5569 5570 5568 5563 5560 5559 5559 5556 5552 5548 5545 5541 5535 5530 5525 5520 5513 5509 5502 5496 5491 5485 5481 5480 5477 5473 5470 5465
5578 5570 5577 5573 5584 5581 5576 5577 5576 5571 5566 5564 5564 5564 5566 5565 5564 5561 5560 5561 5558 5555 5551 5548 5545 5542 5540 5535 5531 5527 5522 5519 5511 5506 5501 5493 5486 5482 5476 5470 5466 5463 5460 5455
5564 5559 5577 5572 5569 5566 5566 5564 5563 5560 5559 5558 5559 5558 5559 5560 5561 5560 5560 5560 5557 5551 5548 5545 5541 5538 5535 5531 5525 5520 5515 5510 5505 5500 5494 5488 5482 5476 5472 5466 5461 5455 5448 5443
5555 5555 5552 5550 5557 5554 5553 5554 5549 5550 5550 5550 5550 5551 5550 5550 5550 5551 5551 5549 5549 5548 5545 5540 5536 5536 5531 5524 5519 5514 5509 5506 5500 5494 5489 5484 5478 5473 5467 5461 5454 5447 5439 5432
5546 5554 5547 5544 5545 5545 5544 5545 5544 5544 5539 5535 5537 5538 5539 5539 5538 5537 5536 5537 5537 5536 5535 5534 5533 5529 5526 5522 5518 5515 5512 5507 5502 5493 5486 5482 5476 5469 5464 5457 5450 5441 5434 5423
5550 5556 5549 5551 5545 5540 5536 5533 5532 5531 5531 5533 5525 5521 5522 5524 5526 5525 5523 5521 5521 5521 5522 5523 5521 5520 5517 5516 5514 5511 5505 5499 5493 5490 5484 5478 5474 5467 5459 5452 5444 5435 5424 5413
5540 5543 5541 5540 5535 5532 5529 5526 5519 5519 5519 5519 5519 5513 5509 5508 5506 5507 5508 5507 5506 5505 5509 5508 5509 5510 5509 5506 5504 5499 5495 5491 5486 5480 5477 5475 5468 5462 5454 5445 5437 5428 5418 5404
5529 5531 5530 5526 5521 5517 5515 5514 5516 5505 5504 5503 5505 5503 5502 5501 5497 5493 5491 5492 5494 5495 5494 5493 5494 5496 5498 5498 5497 5492 5485 5480 5476 5473 5467 5463 5459 5453 5446 5440 5429 5420 5408 5396
5512 5514 5510 5508 5504 5504 5503 5500 5497 5497 5493 5488 5485 5487 5489 5487 5486 5484 5481 5474 5484 5483 5482 5483 5485 5486 5486 5487 5486 5483 5479 5473 5468 5466 5462 5457 5453 5447 5438 5429 5420 5410 5400 5388
5490 5490 5490 5488 5485 5486 5487 5487 5484 5479 5478 5480 5479 5470 5470 5472 5474 5472 5471 5473 5468 5469 5468 5468 5471 5475 5476 5478 5476 5472 5469 5468 5465 5460 5455 5450 5445 5439 5431 5421 5411 5401 5391 5378
5465 5466 5470 5468 5467 5468 5471 5469 5467 5466 5468 5466 5466 5463 5464 5461 5459 5459 5462 5466 5461 5459 5460 5461 5462 5463 5464 5463 5463 5461 5460 5458 5457 5453 5447 5441 5436 5431 5421 5411 5401 5389 5380 5368
5454 5453 5453 5456 5456 5455 5455 5459 5453 5455 5455 5457 5457 5457 5454 5454 5451 5450 5453 5455 5454 5451 5449 5450 5453 5456 5454 5451 5449 5448 5448 5446 5448 5447 5438 5434 5427 5418 5408 5396 5385 5374 5366 5355
5443 5439 5433 5434 5442 5447 5448 5449 5448 5447 5448 5448 5452 5450 5447 5444 5447 5449 5441 5442 5441 5439 5439 5440 5441 5442 5442 5439 5438 5437 5437 5437 5435 5435 5428 5422 5417 5408 5399 5387 5373 5358 5350 5338
5436 5435 5437 5438 5441 5441 5440 5438 5440 5444 5438 5440 5445 5442 5439 5437 5437 5437 5433 5431 5430 5427 5428 5428 5427 5425 5429 5429 5429 5427 5426 5424 5423 5421 5415 5404 5398 5391 5382 5373 5360 5348 5339 5324
5425 5431 5428 5429 5429 5429 5432 5434 5432 5436 5436 5432 5433 5433 5430 5429 5428 5426 5425 5420 5419 5417 5417 5417 5417 5415 5416 5417 5418 5416 5415 5413 5409 5405 5399 5386 5379 5375 5366 5358 5345 5334 5324 5311